User: anonymous   Login
Location: Corralito
(10.2667°N, 66.9500°W)
Time: 11:35:58
(UTC+00:00)
Language:

FALCON 9 R/B - Orbit

View from above orbital plane
View from above orbital plane
View from above satellite
View from above satellite

Ground track
Ground track

The orbit data is extracted from the following two-line orbital elements,

1 43563U 18059B   23267.04935562  .00102645 -15484-6  16836-2 0  9991
2 43563  26.9612 150.8089 5119021  47.4010 345.7900  5.55658983 92075
Epoch (UTC): 24 September 2023 01:11:04
Eccentricity: 0.5119021
inclination: 26.9612°
perigee height: 194 km
apogee height: 13979 km
right ascension of ascending node: 150.8089°
argument of perigee: 47.4010°
revolutions per day: 5.55658983
mean anomaly at epoch: 345.7900°
orbit number at epoch: 9207

The dashed part of the orbit path shows where the satellite is in the earth's shadow,  

DLR